TimeCST,TemperatureF,Dew PointF,Humidity,Sea Level PressureIn,VisibilityMPH,Wind Direction,Wind SpeedMPH,Gust SpeedMPH,PrecipitationIn,Events,Conditions,WindDirDegrees,DateUTC
12:53 AM,57.0,55.0,93,29.79,5.0,South,10.4,-,N/A,,Overcast,170,2013-12-04 06:53:00
1:53 AM,57.9,55.0,90,29.79,6.0,South,8.1,-,N/A,,Overcast,170,2013-12-04 07:53:00
2:53 AM,59.0,55.9,90,29.81,6.0,South,9.2,-,N/A,,Overcast,180,2013-12-04 08:53:00
3:53 AM,60.1,57.0,90,29.79,6.0,SSE,9.2,-,N/A,,Overcast,160,2013-12-04 09:53:00
4:53 AM,61.0,57.9,90,29.79,7.0,South,9.2,-,N/A,,Overcast,170,2013-12-04 10:53:00
5:53 AM,61.0,57.9,90,29.80,9.0,South,9.2,-,N/A,,Overcast,170,2013-12-04 11:53:00
6:13 AM,62.6,57.2,82,29.82,10.0,South,9.2,-,N/A,,Mostly Cloudy,170,2013-12-04 12:13:00
6:53 AM,62.1,57.9,86,29.81,9.0,SSE,10.4,-,N/A,,Mostly Cloudy,160,2013-12-04 12:53:00
7:17 AM,62.6,59.0,88,29.83,9.0,South,11.5,-,N/A,,Mostly Cloudy,170,2013-12-04 13:17:00
7:53 AM,64.0,59.0,84,29.83,10.0,South,11.5,-,N/A,,Mostly Cloudy,170,2013-12-04 13:53:00
8:53 AM,66.0,59.0,78,29.84,10.0,South,11.5,-,N/A,,Mostly Cloudy,180,2013-12-04 14:53:00
9:53 AM,69.1,59.0,70,29.84,10.0,South,16.1,23.0,N/A,,Mostly Cloudy,190,2013-12-04 15:53:00
10:53 AM,71.1,57.9,63,29.81,10.0,South,16.1,25.3,N/A,,Mostly Cloudy,190,2013-12-04 16:53:00
11:22 AM,71.6,57.2,60,29.81,10.0,SSW,19.6,28.8,N/A,,Mostly Cloudy,200,2013-12-04 17:22:00
11:53 AM,73.9,55.9,53,29.79,10.0,SSW,18.4,32.2,N/A,,Mostly Cloudy,200,2013-12-04 17:53:00
12:53 PM,75.0,55.9,51,29.77,10.0,SSW,17.3,32.2,N/A,,Overcast,210,2013-12-04 18:53:00
1:53 PM,75.0,55.0,50,29.75,10.0,SSW,20.7,28.8,N/A,,Mostly Cloudy,200,2013-12-04 19:53:00
2:53 PM,75.0,55.0,50,29.76,10.0,SSW,16.1,29.9,N/A,,Mostly Cloudy,210,2013-12-04 20:53:00
3:53 PM,73.0,55.0,53,29.77,10.0,South,13.8,25.3,N/A,,Mostly Cloudy,180,2013-12-04 21:53:00
4:53 PM,71.1,55.0,57,29.79,10.0,South,13.8,-,N/A,,Mostly Cloudy,190,2013-12-04 22:53:00
5:53 PM,70.0,57.0,63,29.81,10.0,South,17.3,-,N/A,,Mostly Cloudy,190,2013-12-04 23:53:00
6:53 PM,69.1,57.9,68,29.81,10.0,South,18.4,26.5,N/A,,Mostly Cloudy,190,2013-12-05 00:53:00
7:53 PM,69.1,60.1,73,29.83,10.0,South,19.6,27.6,N/A,,Overcast,190,2013-12-05 01:53:00
8:53 PM,69.1,60.1,73,29.83,10.0,South,19.6,28.8,N/A,,Mostly Cloudy,180,2013-12-05 02:53:00
9:53 PM,69.1,61.0,75,29.85,10.0,South,18.4,-,N/A,,Mostly Cloudy,190,2013-12-05 03:53:00
10:53 PM,69.1,61.0,75,29.86,10.0,South,13.8,-,N/A,,Mostly Cloudy,190,2013-12-05 04:53:00
11:53 PM,68.0,61.0,78,29.87,10.0,SSW,10.4,16.1,N/A,,Mostly Cloudy,200,2013-12-05 05:53:00